Time,TemperatureF,DewpointF,PressureIn,WindDirection,WindDirectionDegrees,WindSpeedMPH,WindSpeedGustMPH,Humidity,HourlyPrecipIn,Conditions,Clouds,dailyrainin,SoftwareType,DateUTC
2013-01-27 00:01:00,40.0,35.0,29.74,SSE,158,2.0,3.0,84,0.00,,,-99.99,,2013-01-27 07:01:00,
2013-01-27 00:13:00,39.0,35.0,29.73,East,90,1.0,2.0,84,0.00,,,-99.99,,2013-01-27 07:13:00,
2013-01-27 00:21:00,40.0,35.0,29.73,NE,40,0.0,1.0,84,0.00,,,-99.99,,2013-01-27 07:21:00,
2013-01-27 00:31:00,40.0,35.0,29.73,SSE,167,3.0,3.0,85,0.00,,,-99.99,,2013-01-27 07:31:00,
2013-01-27 00:41:00,40.0,35.0,29.73,ESE,116,3.0,4.0,84,0.00,,,-99.99,,2013-01-27 07:41:00,
2013-01-27 00:51:00,40.0,36.0,29.72,SE,127,2.0,3.0,84,0.00,,,-99.99,,2013-01-27 07:51:00,
2013-01-27 01:01:00,41.0,36.0,29.72,East,90,2.0,3.0,82,0.00,,,-99.99,,2013-01-27 08:01:00,
2013-01-27 01:11:00,40.0,35.0,29.72,WSW,240,0.0,3.0,83,0.00,,,-99.99,,2013-01-27 08:11:00,
2013-01-27 01:22:00,40.0,35.0,29.72,NNW,333,1.0,1.0,85,0.00,,,-99.99,,2013-01-27 08:22:00,
2013-01-27 01:31:00,40.0,35.0,29.72,West,281,1.0,2.0,85,0.00,,,-99.99,,2013-01-27 08:31:00,
2013-01-27 01:41:00,39.0,35.0,29.72,SE,142,2.0,3.0,85,0.00,,,-99.99,,2013-01-27 08:41:00,
2013-01-27 01:52:00,39.0,35.0,29.71,SSE,152,2.0,4.0,86,0.00,,,-99.99,,2013-01-27 08:52:00,
2013-01-27 02:02:00,38.0,34.0,29.71,SE,130,1.0,2.0,87,0.00,,,-99.99,,2013-01-27 09:02:00,
2013-01-27 02:11:00,38.0,35.0,29.72,South,186,2.0,3.0,89,0.00,,,-99.99,,2013-01-27 09:11:00,
2013-01-27 02:21:00,39.0,36.0,29.72,SSE,166,4.0,4.0,89,0.00,,,-99.99,,2013-01-27 09:21:00,
2013-01-27 02:32:00,38.0,35.0,29.71,SE,144,4.0,5.0,89,0.00,,,-99.99,,2013-01-27 09:32:00,
2013-01-27 02:41:00,38.0,35.0,29.71,South,177,5.0,7.0,91,0.00,,,-99.99,,2013-01-27 09:41:00,
2013-01-27 02:51:00,38.0,35.0,29.72,SSW,192,4.0,7.0,90,0.00,,,-99.99,,2013-01-27 09:51:00,
2013-01-27 03:01:00,37.0,34.0,29.72,South,174,3.0,4.0,90,0.00,,,-99.99,,2013-01-27 10:01:00,
2013-01-27 03:11:00,37.0,35.0,29.71,South,172,3.0,5.0,91,0.00,,,-99.99,,2013-01-27 10:11:00,
2013-01-27 03:21:00,37.0,35.0,29.71,SSW,206,4.0,6.0,91,0.00,,,-99.99,,2013-01-27 10:21:00,
2013-01-27 03:31:00,37.0,35.0,29.71,SW,231,3.0,6.0,91,0.00,,,-99.99,,2013-01-27 10:31:00,
2013-01-27 03:41:00,37.0,34.0,29.71,SSW,205,1.0,5.0,92,0.00,,,-99.99,,2013-01-27 10:41:00,
2013-01-27 03:51:00,36.0,34.0,29.71,SW,222,1.0,2.0,92,0.00,,,-99.99,,2013-01-27 10:51:00,
2013-01-27 04:01:00,36.0,34.0,29.71,SSE,163,4.0,4.0,93,0.00,,,-99.99,,2013-01-27 11:01:00,
2013-01-27 04:11:00,36.0,34.0,29.71,South,180,3.0,5.0,94,0.00,,,-99.99,,2013-01-27 11:11:00,
2013-01-27 04:21:00,36.0,34.0,29.71,SSE,158,5.0,7.0,93,0.00,,,-99.99,,2013-01-27 11:21:00,
2013-01-27 04:32:00,36.0,34.0,29.70,South,169,5.0,6.0,93,0.00,,,-99.99,,2013-01-27 11:32:00,
2013-01-27 04:42:00,35.0,34.0,29.70,SSE,151,5.0,5.0,93,0.00,,,-99.99,,2013-01-27 11:42:00,
2013-01-27 04:52:00,35.0,33.0,29.70,SSE,154,5.0,6.0,93,0.00,,,-99.99,,2013-01-27 11:52:00,
2013-01-27 05:02:00,34.0,33.0,29.71,SSE,167,3.0,5.0,92,0.00,,,-99.99,,2013-01-27 12:02:00,
2013-01-27 05:11:00,35.0,33.0,29.71,SSW,198,4.0,5.0,93,0.00,,,-99.99,,2013-01-27 12:11:00,
2013-01-27 05:21:00,34.0,32.0,29.71,South,186,3.0,6.0,93,0.00,,,-99.99,,2013-01-27 12:21:00,
2013-01-27 05:32:00,34.0,32.0,29.71,South,184,5.0,6.0,92,0.00,,,-99.99,,2013-01-27 12:32:00,
2013-01-27 05:42:00,34.0,32.0,29.71,SSW,195,3.0,6.0,92,0.00,,,-99.99,,2013-01-27 12:42:00,
2013-01-27 05:52:00,34.0,32.0,29.71,South,190,2.0,6.0,93,0.00,,,-99.99,,2013-01-27 12:52:00,
2013-01-27 06:02:00,33.0,32.0,29.71,SSE,153,3.0,5.0,93,0.00,,,-99.99,,2013-01-27 13:02:00,
2013-01-27 06:11:00,33.0,32.0,29.72,SSW,197,3.0,4.0,94,0.00,,,-99.99,,2013-01-27 13:11:00,
2013-01-27 06:22:00,33.0,31.0,29.72,South,176,3.0,4.0,94,0.00,,,-99.99,,2013-01-27 13:22:00,
2013-01-27 06:32:00,33.0,31.0,29.72,SSE,167,5.0,7.0,94,0.00,,,-99.99,,2013-01-27 13:32:00,
2013-01-27 06:42:00,33.0,31.0,29.73,South,172,5.0,8.0,94,0.00,,,-99.99,,2013-01-27 13:42:00,
2013-01-27 06:52:00,33.0,31.0,29.73,South,175,3.0,7.0,94,0.00,,,-99.99,,2013-01-27 13:52:00,
2013-01-27 07:01:00,33.0,31.0,29.73,SSW,192,3.0,5.0,93,0.00,,,-99.99,,2013-01-27 14:01:00,
2013-01-27 07:11:00,32.0,30.0,29.74,SSE,161,3.0,4.0,93,0.00,,,-99.99,,2013-01-27 14:11:00,
2013-01-27 07:22:00,32.0,31.0,29.74,South,177,3.0,5.0,94,0.00,,,-99.99,,2013-01-27 14:22:00,
2013-01-27 07:32:00,32.0,30.0,29.76,SSE,159,4.0,5.0,94,0.00,,,-99.99,,2013-01-27 14:32:00,
2013-01-27 07:42:00,32.0,30.0,29.76,SSW,196,3.0,6.0,94,0.00,,,-99.99,,2013-01-27 14:42:00,
2013-01-27 07:52:00,32.0,30.0,29.76,SSE,164,4.0,5.0,93,0.00,,,-99.99,,2013-01-27 14:52:00,
2013-01-27 08:02:00,32.0,30.0,29.76,SSE,150,2.0,4.0,93,0.00,,,-99.99,,2013-01-27 15:02:00,
2013-01-27 08:11:00,32.0,30.0,29.76,South,184,2.0,3.0,93,0.00,,,-99.99,,2013-01-27 15:11:00,
2013-01-27 08:22:00,32.0,31.0,29.76,South,182,5.0,5.0,93,0.00,,,-99.99,,2013-01-27 15:22:00,
2013-01-27 08:32:00,33.0,31.0,29.76,SSW,211,4.0,8.0,91,0.00,,,-99.99,,2013-01-27 15:32:00,
2013-01-27 08:42:00,34.0,31.0,29.77,SW,235,7.0,7.0,90,0.00,,,-99.99,,2013-01-27 15:42:00,
2013-01-27 08:52:00,35.0,32.0,29.77,SW,214,6.0,7.0,88,0.00,,,-99.99,,2013-01-27 15:52:00,
2013-01-27 09:02:00,36.0,32.0,29.77,SSW,204,6.0,7.0,84,0.00,,,-99.99,,2013-01-27 16:02:00,
2013-01-27 09:11:00,37.0,32.0,29.77,SSW,194,5.0,7.0,82,0.00,,,-99.99,,2013-01-27 16:11:00,
2013-01-27 09:21:00,38.0,32.0,29.77,South,191,5.0,7.0,80,0.00,,,-99.99,,2013-01-27 16:21:00,
2013-01-27 09:32:00,39.0,33.0,29.77,South,170,7.0,8.0,79,0.00,,,-99.99,,2013-01-27 16:32:00,
2013-01-27 09:42:00,40.0,33.0,29.77,South,177,6.0,8.0,77,0.00,,,-99.99,,2013-01-27 16:42:00,
2013-01-27 09:52:00,40.0,33.0,29.77,South,187,6.0,7.0,76,0.00,,,-99.99,,2013-01-27 16:52:00,
2013-01-27 10:01:00,41.0,34.0,29.77,SSW,204,7.0,7.0,74,0.00,,,-99.99,,2013-01-27 17:01:00,
2013-01-27 10:12:00,43.0,35.0,29.77,South,180,6.0,9.0,74,0.00,,,-99.99,,2013-01-27 17:12:00,
2013-01-27 10:21:00,43.0,35.0,29.77,SSW,213,8.0,9.0,71,0.00,,,-99.99,,2013-01-27 17:21:00,
2013-01-27 10:32:00,44.0,35.0,29.77,South,191,7.0,10.0,71,0.00,,,-99.99,,2013-01-27 17:32:00,
2013-01-27 10:42:00,45.0,36.0,29.77,South,189,9.0,9.0,70,0.00,,,-99.99,,2013-01-27 17:42:00,
2013-01-27 10:52:00,46.0,36.0,29.77,SSW,205,6.0,10.0,68,0.00,,,-99.99,,2013-01-27 17:52:00,
2013-01-27 11:02:00,46.0,35.0,29.77,SSW,203,3.0,6.0,66,0.00,,,-99.99,,2013-01-27 18:02:00,
2013-01-27 11:11:00,49.0,36.0,29.77,SSW,198,6.0,7.0,62,0.00,,,-99.99,,2013-01-27 18:11:00,
2013-01-27 11:22:00,49.0,35.0,29.77,SW,226,6.0,7.0,59,0.00,,,-99.99,,2013-01-27 18:22:00,
2013-01-27 11:32:00,50.0,35.0,29.76,SSE,154,3.0,7.0,55,0.00,,,-99.99,,2013-01-27 18:32:00,
2013-01-27 11:42:00,52.0,35.0,29.76,SE,130,6.0,9.0,52,0.00,,,-99.99,,2013-01-27 18:42:00,
2013-01-27 11:52:00,53.0,34.0,29.76,South,191,3.0,8.0,49,0.00,,,-99.99,,2013-01-27 18:52:00,
2013-01-27 12:02:00,54.0,34.0,29.74,SE,126,7.0,9.0,49,0.00,,,-99.99,,2013-01-27 19:02:00,
2013-01-27 12:11:00,54.0,34.0,29.74,SSW,205,5.0,6.0,46,0.00,,,-99.99,,2013-01-27 19:11:00,
2013-01-27 12:22:00,53.0,34.0,29.73,SSW,203,2.0,8.0,47,0.00,,,-99.99,,2013-01-27 19:22:00,
2013-01-27 12:32:00,54.0,33.0,29.73,South,177,5.0,7.0,46,0.00,,,-99.99,,2013-01-27 19:32:00,
2013-01-27 12:41:00,55.0,32.0,29.72,East,82,6.0,8.0,42,0.00,,,-99.99,,2013-01-27 19:41:00,
2013-01-27 12:51:00,54.0,31.0,29.72,ESE,120,7.0,9.0,41,0.00,,,-99.99,,2013-01-27 19:51:00,
2013-01-27 13:02:00,57.0,32.0,29.72,ENE,64,4.0,8.0,39,0.00,,,-99.99,,2013-01-27 20:02:00,
2013-01-27 13:11:00,55.0,31.0,29.72,ENE,76,7.0,9.0,40,0.00,,,-99.99,,2013-01-27 20:11:00,
2013-01-27 13:22:00,57.0,32.0,29.71,SSE,149,4.0,10.0,39,0.00,,,-99.99,,2013-01-27 20:22:00,
2013-01-27 13:32:00,56.0,32.0,29.71,ESE,108,8.0,10.0,39,0.00,,,-99.99,,2013-01-27 20:32:00,
2013-01-27 13:42:00,58.0,31.0,29.71,SE,136,2.0,8.0,37,0.00,,,-99.99,,2013-01-27 20:42:00,
2013-01-27 13:52:00,57.0,32.0,29.70,ENE,63,6.0,8.0,39,0.00,,,-99.99,,2013-01-27 20:52:00,
2013-01-27 14:02:00,56.0,32.0,29.70,East,95,8.0,12.0,40,0.00,,,-99.99,,2013-01-27 21:02:00,
2013-01-27 14:12:00,58.0,32.0,29.70,NE,51,9.0,11.0,38,0.00,,,-99.99,,2013-01-27 21:12:00,
2013-01-27 14:22:00,56.0,31.0,29.70,East,79,8.0,11.0,38,0.00,,,-99.99,,2013-01-27 21:22:00,
2013-01-27 14:32:00,58.0,31.0,29.70,ENE,57,5.0,10.0,38,0.00,,,-99.99,,2013-01-27 21:32:00,
2013-01-27 14:42:00,59.0,31.0,29.70,East,90,2.0,9.0,35,0.00,,,-99.99,,2013-01-27 21:42:00,
2013-01-27 14:52:00,58.0,30.0,29.70,East,85,8.0,9.0,34,0.00,,,-99.99,,2013-01-27 21:52:00,
2013-01-27 15:02:00,58.0,30.0,29.70,East,82,8.0,9.0,34,0.00,,,-99.99,,2013-01-27 22:02:00,
2013-01-27 15:11:00,57.0,29.0,29.70,ESE,112,4.0,9.0,34,0.00,,,-99.99,,2013-01-27 22:11:00,
2013-01-27 15:22:00,58.0,29.0,29.70,ENE,60,8.0,11.0,33,0.00,,,-99.99,,2013-01-27 22:22:00,
2013-01-27 15:32:00,58.0,29.0,29.70,East,90,8.0,11.0,32,0.00,,,-99.99,,2013-01-27 22:32:00,
2013-01-27 15:42:00,58.0,28.0,29.70,ENE,72,9.0,14.0,33,0.00,,,-99.99,,2013-01-27 22:42:00,
2013-01-27 15:51:00,58.0,29.0,29.70,ENE,69,6.0,12.0,33,0.00,,,-99.99,,2013-01-27 22:51:00,
2013-01-27 16:02:00,58.0,29.0,29.70,ENE,77,11.0,11.0,33,0.00,,,-99.99,,2013-01-27 23:02:00,
2013-01-27 16:12:00,57.0,29.0,29.70,East,82,9.0,13.0,34,0.00,,,-99.99,,2013-01-27 23:12:00,
2013-01-27 16:21:00,56.0,29.0,29.70,ENE,72,10.0,14.0,35,0.00,,,-99.99,,2013-01-27 23:21:00,
2013-01-27 16:32:00,56.0,29.0,29.70,East,84,7.0,15.0,35,0.00,,,-99.99,,2013-01-27 23:32:00,
2013-01-27 16:41:00,56.0,29.0,29.70,East,79,8.0,13.0,36,0.00,,,-99.99,,2013-01-27 23:41:00,
2013-01-27 16:52:00,55.0,29.0,29.70,East,88,11.0,13.0,37,0.00,,,-99.99,,2013-01-27 23:52:00,
2013-01-27 17:01:00,54.0,30.0,29.70,East,80,8.0,13.0,39,0.00,,,-99.99,,2013-01-28 00:01:00,
2013-01-27 17:11:00,54.0,30.0,29.70,East,90,9.0,13.0,40,0.00,,,-99.99,,2013-01-28 00:11:00,
2013-01-27 17:21:00,52.0,31.0,29.70,East,92,8.0,11.0,43,0.00,,,-99.99,,2013-01-28 00:21:00,
2013-01-27 17:32:00,52.0,31.0,29.70,East,92,6.0,11.0,44,0.00,,,-99.99,,2013-01-28 00:32:00,
2013-01-27 17:42:00,52.0,31.0,29.70,East,84,6.0,11.0,45,0.00,,,-99.99,,2013-01-28 00:42:00,
2013-01-27 17:51:00,51.0,31.0,29.70,NNE,24,3.0,8.0,46,0.00,,,-99.99,,2013-01-28 00:51:00,
2013-01-27 18:01:00,50.0,31.0,29.71,North,1,2.0,7.0,48,0.00,,,-99.99,,2013-01-28 01:01:00,
2013-01-27 18:11:00,50.0,31.0,29.71,NNE,33,1.0,5.0,49,0.00,,,-99.99,,2013-01-28 01:11:00,
2013-01-27 18:21:00,49.0,31.0,29.71,SW,214,3.0,4.0,50,0.00,,,-99.99,,2013-01-28 01:21:00,
2013-01-27 18:32:00,49.0,31.0,29.71,SW,214,3.0,4.0,50,0.00,,,-99.99,,2013-01-28 01:32:00,
2013-01-27 18:42:00,47.0,31.0,29.71,NW,325,4.0,6.0,55,0.00,,,-99.99,,2013-01-28 01:42:00,
2013-01-27 18:51:00,47.0,31.0,29.71,SW,223,2.0,4.0,55,0.00,,,-99.99,,2013-01-28 01:51:00,
2013-01-27 19:02:00,46.0,31.0,29.72,West,266,1.0,3.0,56,0.00,,,-99.99,,2013-01-28 02:02:00,
2013-01-27 19:11:00,46.0,31.0,29.72,West,266,1.0,3.0,56,0.00,,,-99.99,,2013-01-28 02:11:00,
2013-01-27 19:22:00,46.0,31.0,29.72,West,266,1.0,3.0,56,0.00,,,-99.99,,2013-01-28 02:22:00,
2013-01-27 19:32:00,46.0,31.0,29.72,West,266,1.0,3.0,56,0.00,,,-99.99,,2013-01-28 02:32:00,
2013-01-27 19:42:00,46.0,31.0,29.72,West,266,1.0,3.0,56,0.00,,,-99.99,,2013-01-28 02:42:00,
2013-01-27 19:52:00,43.0,31.0,29.73,SSE,159,3.0,6.0,64,0.00,,,-99.99,,2013-01-28 02:52:00,
2013-01-27 20:02:00,43.0,31.0,29.73,NNE,30,0.0,3.0,64,0.00,,,-99.99,,2013-01-28 03:02:00,
2013-01-27 20:12:00,43.0,31.0,29.74,NNE,23,1.0,1.0,61,0.00,,,-99.99,,2013-01-28 03:12:00,
2013-01-27 20:22:00,41.0,31.0,29.74,NNW,332,5.0,5.0,66,0.00,,,-99.99,,2013-01-28 03:22:00,
2013-01-27 20:32:00,44.0,30.0,29.74,West,280,0.0,7.0,58,0.00,,,-99.99,,2013-01-28 03:32:00,
2013-01-27 20:41:00,42.0,30.0,29.74,South,180,5.0,8.0,60,0.00,,,-99.99,,2013-01-28 03:41:00,
2013-01-27 20:52:00,42.0,30.0,29.73,SSE,151,3.0,5.0,64,0.00,,,-99.99,,2013-01-28 03:52:00,
2013-01-27 21:01:00,41.0,30.0,29.73,NE,49,1.0,5.0,65,0.00,,,-99.99,,2013-01-28 04:01:00,
2013-01-27 21:11:00,40.0,30.0,29.74,ESE,113,5.0,7.0,68,0.00,,,-99.99,,2013-01-28 04:11:00,
2013-01-27 21:21:00,38.0,28.0,29.74,East,101,5.0,7.0,65,0.00,,,-99.99,,2013-01-28 04:21:00,
2013-01-27 21:32:00,41.0,29.0,29.74,East,101,3.0,6.0,63,0.00,,,-99.99,,2013-01-28 04:32:00,
2013-01-27 21:41:00,40.0,28.0,29.74,East,98,5.0,6.0,63,0.00,,,-99.99,,2013-01-28 04:41:00,
2013-01-27 21:52:00,40.0,25.0,29.73,SE,132,5.0,7.0,57,0.00,,,-99.99,,2013-01-28 04:52:00,
2013-01-27 22:03:00,42.0,22.0,29.73,SSE,150,7.0,9.0,45,0.00,,,-99.99,,2013-01-28 05:03:00,
2013-01-27 22:11:00,45.0,22.0,29.73,SSE,151,5.0,9.0,40,0.00,,,-99.99,,2013-01-28 05:11:00,
2013-01-27 22:21:00,44.0,22.0,29.73,SE,136,5.0,8.0,42,0.00,,,-99.99,,2013-01-28 05:21:00,
2013-01-27 22:31:00,45.0,23.0,29.73,SSW,196,3.0,6.0,42,0.00,,,-99.99,,2013-01-28 05:31:00,
2013-01-27 22:41:00,45.0,23.0,29.72,ESE,123,4.0,7.0,45,0.00,,,-99.99,,2013-01-28 05:41:00,
2013-01-27 22:52:00,42.0,23.0,29.72,East,92,3.0,6.0,45,0.00,,,-99.99,,2013-01-28 05:52:00,
2013-01-27 23:02:00,44.0,24.0,29.72,ENE,74,4.0,6.0,47,0.00,,,-99.99,,2013-01-28 06:02:00,
2013-01-27 23:11:00,43.0,24.0,29.72,ESE,102,4.0,6.0,45,0.00,,,-99.99,,2013-01-28 06:11:00,
2013-01-27 23:21:00,41.0,23.0,29.72,East,93,5.0,5.0,48,0.00,,,-99.99,,2013-01-28 06:21:00,
2013-01-27 23:32:00,43.0,23.0,29.71,ESE,120,6.0,10.0,47,0.00,,,-99.99,,2013-01-28 06:32:00,
2013-01-27 23:42:00,43.0,24.0,29.72,SSE,152,8.0,10.0,47,0.00,,,-99.99,,2013-01-28 06:42:00,
2013-01-27 23:52:00,43.0,24.0,29.71,SE,124,3.0,11.0,47,0.00,,,-99.99,,2013-01-28 06:52:00,